^^
Saratoga-Weather Station Historical Data
Daily Summary for April 5, 2021 Units:  Metric    English   Both
Daily Weekly Monthly Yearly Custom
  High: Low: Average:
Temperature: 2.7 °C 1.7 °C 2.1 °C
Dew Point: 1.2 °C 0 °C 0.7 °C
Humidity: 92% 87% 90%
Wind Speed: 7.9km/h 0km/h 1.9km/h
Wind Gust: 16.1km/h - -
Wind- - SE
Pressure: 1013.2 hPa 1011.5 hPa -
Precipitation: 0.0 mm    
Historical Graphs
 
 
Tabular Data for April 5, 2021
Time Temperature Dew Point Pressure Wind Wind Speed Wind Gust Humidity Rainfall Rate (Hourly) solar
00:02 1.8 °C 0 °C 1011.5 hPa NE 3.2 km/h 16.1 km/h 88% 0.0 mm 0 W/m2
00:07 1.8 °C 0.2 °C 1011.9 hPa ESE 1.4 km/h 9.7 km/h 89% 0.0 mm 0 W/m2
00:12 1.8 °C 0.2 °C 1011.9 hPa East 1.4 km/h 16.1 km/h 89% 0.0 mm 0 W/m2
00:17 1.8 °C 0.2 °C 1011.9 hPa ENE 3.2 km/h 14.5 km/h 89% 0.0 mm 0 W/m2
00:22 1.8 °C 0.2 °C 1011.9 hPa East 3.2 km/h 14.5 km/h 89% 0.0 mm 0 W/m2
00:27 1.8 °C 0.2 °C 1011.9 hPa East 3.2 km/h 3.2 km/h 89% 0.0 mm 0 W/m2
00:32 1.8 °C 0.2 °C 1011.9 hPa ENE 3.2 km/h 14.5 km/h 89% 0.0 mm 0 W/m2
00:37 1.8 °C 0.2 °C 1011.9 hPa ESE 4.7 km/h 4.8 km/h 89% 0.0 mm 0 W/m2
00:42 1.7 °C 0.2 °C 1011.9 hPa East 4.7 km/h 8 km/h 90% 0.0 mm 0 W/m2
00:47 1.7 °C 0.2 °C 1011.9 hPa East 7.9 km/h 11.3 km/h 90% 0.0 mm 0 W/m2
00:52 1.7 °C 0.2 °C 1011.9 hPa ENE 1.4 km/h 4.8 km/h 90% 0.0 mm 0 W/m2
00:57 1.7 °C 0.2 °C 1011.5 hPa ENE 4.7 km/h 9.7 km/h 90% 0.0 mm 0 W/m2
01:02 1.7 °C 0.2 °C 1011.9 hPa NE 1.4 km/h 8 km/h 90% 0.0 mm 0 W/m2
01:07 1.7 °C 0.2 °C 1011.9 hPa ENE 3.2 km/h 8 km/h 90% 0.0 mm 0 W/m2
01:12 1.7 °C 0.2 °C 1011.9 hPa ENE 1.4 km/h 8 km/h 90% 0.0 mm 0 W/m2
01:17 1.7 °C 0.2 °C 1011.9 hPa ENE 1.4 km/h 4.8 km/h 90% 0.0 mm 0 W/m2
01:22 1.7 °C 0.2 °C 1011.9 hPa ENE 3.2 km/h 8 km/h 90% 0.0 mm 0 W/m2
01:27 1.7 °C 0.1 °C 1011.9 hPa NE 1.4 km/h 8 km/h 89% 0.0 mm 0 W/m2
01:32 1.8 °C 0.2 °C 1011.9 hPa Calm   8 km/h 89% 0.0 mm 0 W/m2
01:37 1.8 °C 0 °C 1011.9 hPa East 3.2 km/h 11.3 km/h 88% 0.0 mm 0 W/m2
01:42 1.8 °C 0 °C 1011.9 hPa East 4.7 km/h 9.7 km/h 88% 0.0 mm 0 W/m2
01:47 1.9 °C 0.1 °C 1011.9 hPa East 6.4 km/h 6.4 km/h 88% 0.0 mm 0 W/m2
01:52 1.8 °C 0 °C 1011.9 hPa Calm   9.7 km/h 88% 0.0 mm 0 W/m2
01:57 1.9 °C 0.1 °C 1011.9 hPa East 1.4 km/h 3.2 km/h 88% 0.0 mm 0 W/m2
02:02 1.9 °C 0.1 °C 1011.9 hPa ENE 4.7 km/h 12.9 km/h 88% 0.0 mm 0 W/m2
02:07 1.9 °C 0 °C 1011.9 hPa East 1.4 km/h 3.2 km/h 87% 0.0 mm 0 W/m2
02:12 1.9 °C 0 °C 1011.9 hPa ENE 1.4 km/h 12.9 km/h 87% 0.0 mm 0 W/m2
02:17 1.9 °C 0 °C 1011.9 hPa NE 1.4 km/h 9.7 km/h 87% 0.0 mm 0 W/m2
02:22 1.9 °C 0 °C 1011.9 hPa ENE 3.2 km/h 3.2 km/h 87% 0.0 mm 0 W/m2
02:27 1.9 °C 0 °C 1011.9 hPa NE 4.7 km/h 4.8 km/h 87% 0.0 mm 0 W/m2
02:32 1.9 °C 0.1 °C 1011.9 hPa East 3.2 km/h 4.8 km/h 88% 0.0 mm 0 W/m2
02:37 1.9 °C 0.1 °C 1011.9 hPa ENE 1.4 km/h 4.8 km/h 88% 0.0 mm 0 W/m2
02:43 1.9 °C 0.1 °C 1011.9 hPa ESE 3.2 km/h 4.8 km/h 88% 0.0 mm 0 W/m2
02:48 1.8 °C 0 °C 1011.9 hPa Calm   3.2 km/h 88% 0.0 mm 0 W/m2
02:53 1.8 °C 0 °C 1011.9 hPa Calm   1.6 km/h 88% 0.0 mm 0 W/m2
02:58 1.8 °C 0.2 °C 1011.9 hPa Calm   3.2 km/h 89% 0.0 mm 0 W/m2
03:03 1.8 °C 0.2 °C 1011.9 hPa East 6.4 km/h 6.4 km/h 89% 0.0 mm 0 W/m2
03:08 1.8 °C 0.2 °C 1011.9 hPa NE 1.4 km/h 6.4 km/h 89% 0.0 mm 0 W/m2
03:13 1.8 °C 0.2 °C 1011.9 hPa SSE 1.4 km/h 3.2 km/h 89% 0.0 mm 0 W/m2
03:18 1.8 °C 0.2 °C 1011.9 hPa NE 1.4 km/h 4.8 km/h 89% 0.0 mm 0 W/m2
03:23 1.8 °C 0.2 °C 1012.2 hPa Calm   1.6 km/h 89% 0.0 mm 0 W/m2
03:28 1.8 °C 0.3 °C 1011.9 hPa ENE 1.4 km/h 3.2 km/h 90% 0.0 mm 0 W/m2
03:33 1.8 °C 0.3 °C 1011.9 hPa ENE 1.4 km/h 1.6 km/h 90% 0.0 mm 0 W/m2
03:38 1.8 °C 0.3 °C 1011.9 hPa ENE 1.4 km/h 4.8 km/h 90% 0.0 mm 0 W/m2
03:43 1.8 °C 0.3 °C 1011.9 hPa East 1.4 km/h 4.8 km/h 90% 0.0 mm 0 W/m2
03:48 1.8 °C 0.3 °C 1011.9 hPa Calm   1.6 km/h 90% 0.0 mm 0 W/m2
03:53 1.8 °C 0.3 °C 1011.9 hPa Calm   1.6 km/h 90% 0.0 mm 0 W/m2
03:58 1.8 °C 0.3 °C 1011.9 hPa Calm   4.8 km/h 90% 0.0 mm 0 W/m2
04:03 1.7 °C 0.2 °C 1011.9 hPa ENE 1.4 km/h 3.2 km/h 90% 0.0 mm 0 W/m2
04:08 1.7 °C 0.2 °C 1011.9 hPa East 3.2 km/h 3.2 km/h 90% 0.0 mm 0 W/m2
04:13 1.8 °C 0.3 °C 1011.9 hPa East 1.4 km/h 4.8 km/h 90% 0.0 mm 0 W/m2
04:18 1.7 °C 0.2 °C 1011.9 hPa ENE 1.4 km/h 1.6 km/h 90% 0.0 mm 0 W/m2
04:23 1.8 °C 0.3 °C 1011.9 hPa ENE 1.4 km/h 4.8 km/h 90% 0.0 mm 0 W/m2
04:28 1.8 °C 0.3 °C 1011.9 hPa Calm   3.2 km/h 90% 0.0 mm 0 W/m2
04:33 1.8 °C 0.5 °C 1011.9 hPa Calm   3.2 km/h 91% 0.0 mm 0 W/m2
04:38 1.7 °C 0.4 °C 1011.9 hPa ENE 1.4 km/h 6.4 km/h 91% 0.0 mm 0 W/m2
04:43 1.7 °C 0.4 °C 1011.9 hPa Calm   4.8 km/h 91% 0.0 mm 0 W/m2
04:48 1.8 °C 0.5 °C 1011.9 hPa East 1.4 km/h 4.8 km/h 91% 0.0 mm 0 W/m2
04:53 1.8 °C 0.5 °C 1011.9 hPa East 3.2 km/h 4.8 km/h 91% 0.0 mm 0 W/m2
04:58 1.7 °C 0.4 °C 1011.9 hPa Calm   3.2 km/h 91% 0.0 mm 0 W/m2
05:03 1.8 °C 0.5 °C 1011.9 hPa East 1.4 km/h 3.2 km/h 91% 0.0 mm 0 W/m2
05:08 1.8 °C 0.5 °C 1011.9 hPa ENE 1.4 km/h 4.8 km/h 91% 0.0 mm 0 W/m2
05:13 1.8 °C 0.5 °C 1011.9 hPa Calm   4.8 km/h 91% 0.0 mm 0 W/m2
05:18 1.7 °C 0.4 °C 1012.2 hPa Calm   4.8 km/h 91% 0.0 mm 0 W/m2
05:23 1.8 °C 0.5 °C 1012.2 hPa Calm   3.2 km/h 91% 0.0 mm 0 W/m2
05:28 1.8 °C 0.5 °C 1012.2 hPa ENE 1.4 km/h 6.4 km/h 91% 0.0 mm 0 W/m2
05:33 1.8 °C 0.5 °C 1012.2 hPa ESE 1.4 km/h 4.8 km/h 91% 0.0 mm 0 W/m2
05:38 1.8 °C 0.5 °C 1012.2 hPa East 1.4 km/h 4.8 km/h 91% 0.0 mm 0 W/m2
05:43 1.8 °C 0.5 °C 1012.2 hPa East 1.4 km/h 3.2 km/h 91% 0.0 mm 0 W/m2
05:48 1.8 °C 0.5 °C 1012.2 hPa Calm   9.7 km/h 91% 0.0 mm 0 W/m2
05:53 1.8 °C 0.5 °C 1012.2 hPa NE 3.2 km/h 3.2 km/h 91% 0.0 mm 0 W/m2
05:58 1.8 °C 0.5 °C 1012.2 hPa NNE 1.4 km/h 4.8 km/h 91% 0.0 mm 0 W/m2
06:03 1.8 °C 0.5 °C 1012.2 hPa Calm   6.4 km/h 91% 0.0 mm 0 W/m2
06:08 1.8 °C 0.5 °C 1012.2 hPa ENE 4.7 km/h 6.4 km/h 91% 0.0 mm 0 W/m2
06:13 1.8 °C 0.5 °C 1012.2 hPa ENE 1.4 km/h 4.8 km/h 91% 0.0 mm 0 W/m2
06:18 1.8 °C 0.5 °C 1012.2 hPa Calm   4.8 km/h 91% 0.0 mm 0 W/m2
06:23 1.8 °C 0.5 °C 1012.2 hPa East 1.4 km/h 4.8 km/h 91% 0.0 mm 0 W/m2
06:28 1.8 °C 0.5 °C 1012.5 hPa ENE 1.4 km/h 1.6 km/h 91% 0.0 mm 0 W/m2
06:33 1.8 °C 0.5 °C 1012.5 hPa East 3.2 km/h 4.8 km/h 91% 0.0 mm 0 W/m2
06:38 1.8 °C 0.5 °C 1012.5 hPa SE 1.4 km/h 8 km/h 91% 0.0 mm 0 W/m2
06:43 1.8 °C 0.5 °C 1012.5 hPa Calm   3.2 km/h 91% 0.0 mm 0 W/m2
06:48 1.8 °C 0.5 °C 1012.5 hPa ENE 1.4 km/h 4.8 km/h 91% 0.0 mm 0 W/m2
06:53 1.8 °C 0.5 °C 1012.2 hPa ESE 3.2 km/h 3.2 km/h 91% 0.0 mm 0 W/m2
06:58 1.8 °C 0.5 °C 1012.2 hPa ENE 6.4 km/h 6.4 km/h 91% 0.0 mm 0 W/m2
07:03 1.8 °C 0.5 °C 1012.2 hPa Calm   3.2 km/h 91% 0.0 mm 0 W/m2
07:08 1.8 °C 0.5 °C 1012.2 hPa Calm   4.8 km/h 91% 0.0 mm 0 W/m2
07:13 1.8 °C 0.5 °C 1012.2 hPa ENE 1.4 km/h 4.8 km/h 91% 0.0 mm 0 W/m2
07:18 1.8 °C 0.5 °C 1012.5 hPa Calm     91% 0.0 mm 0 W/m2
07:23 1.8 °C 0.5 °C 1012.5 hPa Calm   4.8 km/h 91% 0.0 mm 0 W/m2
07:28 1.8 °C 0.5 °C 1012.5 hPa NE 4.7 km/h 8 km/h 91% 0.0 mm 0 W/m2
07:33 1.8 °C 0.5 °C 1012.5 hPa East 1.4 km/h 4.8 km/h 91% 0.0 mm 0 W/m2
07:38 1.8 °C 0.5 °C 1012.5 hPa Calm   6.4 km/h 91% 0.0 mm 0 W/m2
07:43 1.8 °C 0.5 °C 1012.5 hPa East 1.4 km/h 4.8 km/h 91% 0.0 mm 0 W/m2
07:48 1.8 °C 0.5 °C 1012.5 hPa ESE 1.4 km/h 4.8 km/h 91% 0.0 mm 0 W/m2
07:53 1.8 °C 0.5 °C 1012.5 hPa NE 1.4 km/h 8 km/h 91% 0.0 mm 0 W/m2
07:58 1.8 °C 0.5 °C 1012.5 hPa East 1.4 km/h 4.8 km/h 91% 0.0 mm 0 W/m2
08:03 1.8 °C 0.5 °C 1012.5 hPa ESE 3.2 km/h 8 km/h 91% 0.0 mm 0 W/m2
08:08 1.8 °C 0.5 °C 1012.5 hPa Calm   4.8 km/h 91% 0.0 mm 0 W/m2
08:13 1.8 °C 0.5 °C 1012.9 hPa NE 1.4 km/h 8 km/h 91% 0.0 mm 0 W/m2
08:18 1.8 °C 0.5 °C 1012.9 hPa Calm     91% 0.0 mm 0 W/m2
08:23 1.8 °C 0.5 °C 1012.9 hPa East 3.2 km/h 9.7 km/h 91% 0.0 mm 0 W/m2
08:28 1.8 °C 0.5 °C 1012.9 hPa NE 1.4 km/h 8 km/h 91% 0.0 mm 0 W/m2
08:33 1.8 °C 0.5 °C 1012.5 hPa East 1.4 km/h 9.7 km/h 91% 0.0 mm 0 W/m2
08:38 1.8 °C 0.5 °C 1012.9 hPa ENE 3.2 km/h 3.2 km/h 91% 0.0 mm 0 W/m2
08:43 1.8 °C 0.5 °C 1012.9 hPa NNE 3.2 km/h 3.2 km/h 91% 0.0 mm 0 W/m2
08:48 1.8 °C 0.5 °C 1012.9 hPa NE 1.4 km/h 4.8 km/h 91% 0.0 mm 0 W/m2
08:53 1.8 °C 0.5 °C 1012.9 hPa NE 1.4 km/h 3.2 km/h 91% 0.0 mm 0 W/m2
08:58 1.8 °C 0.5 °C 1012.9 hPa North 3.2 km/h 4.8 km/h 91% 0.0 mm 0 W/m2
09:03 1.8 °C 0.5 °C 1012.9 hPa SSE 1.4 km/h 3.2 km/h 91% 0.0 mm 0 W/m2
09:08 1.8 °C 0.5 °C 1012.9 hPa East 3.2 km/h 6.4 km/h 91% 0.0 mm 5 W/m2
09:13 1.8 °C 0.5 °C 1012.9 hPa Calm   6.4 km/h 91% 0.0 mm 5 W/m2
09:18 1.8 °C 0.5 °C 1012.9 hPa NW 3.2 km/h 4.8 km/h 91% 0.0 mm 7 W/m2
09:23 1.8 °C 0.5 °C 1012.9 hPa Calm   4.8 km/h 91% 0.0 mm 9 W/m2
09:28 1.9 °C 0.6 °C 1012.9 hPa Calm   3.2 km/h 91% 0.0 mm 12 W/m2
09:33 1.9 °C 0.6 °C 1012.9 hPa NE 1.4 km/h 1.6 km/h 91% 0.0 mm 12 W/m2
09:38 1.9 °C 0.6 °C 1012.9 hPa NNE 1.4 km/h 3.2 km/h 91% 0.0 mm 12 W/m2
09:44 1.9 °C 0.6 °C 1012.9 hPa Calm   3.2 km/h 91% 0.0 mm 12 W/m2
09:49 1.9 °C 0.6 °C 1012.5 hPa Calm   4.8 km/h 91% 0.0 mm 18 W/m2
09:54 1.9 °C 0.6 °C 1012.5 hPa NW 1.4 km/h 3.2 km/h 91% 0.0 mm 18 W/m2
09:59 1.9 °C 0.6 °C 1012.9 hPa NE 3.2 km/h 8 km/h 91% 0.0 mm 18 W/m2
10:04 1.9 °C 0.6 °C 1012.9 hPa East 1.4 km/h 4.8 km/h 91% 0.0 mm 18 W/m2
10:09 1.9 °C 0.6 °C 1012.5 hPa NE 1.4 km/h 3.2 km/h 91% 0.0 mm 21 W/m2
10:14 1.9 °C 0.6 °C 1012.9 hPa NE 3.2 km/h 4.8 km/h 91% 0.0 mm 23 W/m2
10:19 2 °C 0.7 °C 1012.9 hPa Calm   3.2 km/h 91% 0.0 mm 25 W/m2
10:24 2 °C 0.7 °C 1012.9 hPa Calm   6.4 km/h 91% 0.0 mm 28 W/m2
10:29 2.1 °C 0.8 °C 1012.9 hPa ENE 4.7 km/h 8 km/h 91% 0.0 mm 30 W/m2
10:34 2.1 °C 0.8 °C 1012.9 hPa NE 4.7 km/h 11.3 km/h 91% 0.0 mm 26 W/m2
10:39 2.1 °C 0.8 °C 1012.9 hPa North 1.4 km/h 4.8 km/h 91% 0.0 mm 26 W/m2
10:44 2.1 °C 0.8 °C 1012.9 hPa West 1.4 km/h 8 km/h 91% 0.0 mm 28 W/m2
10:49 2.2 °C 0.9 °C 1012.9 hPa ESE 4.7 km/h 11.3 km/h 91% 0.0 mm 26 W/m2
10:54 2.2 °C 0.7 °C 1012.9 hPa East 3.2 km/h 6.4 km/h 90% 0.0 mm 28 W/m2
10:59 2.2 °C 0.7 °C 1012.9 hPa NNE 3.2 km/h 11.3 km/h 90% 0.0 mm 33 W/m2
11:04 2.2 °C 0.7 °C 1012.9 hPa Calm   4.8 km/h 90% 0.0 mm 26 W/m2
11:09 2.2 °C 0.7 °C 1012.9 hPa East 1.4 km/h 3.2 km/h 90% 0.0 mm 26 W/m2
11:14 2.3 °C 0.8 °C 1012.9 hPa Calm   6.4 km/h 90% 0.0 mm 28 W/m2
11:19 2.3 °C 0.8 °C 1012.9 hPa ENE 1.4 km/h 3.2 km/h 90% 0.0 mm 28 W/m2
11:24 2.3 °C 0.8 °C 1012.9 hPa South 1.4 km/h 3.2 km/h 90% 0.0 mm 39 W/m2
11:29 2.3 °C 0.8 °C 1012.9 hPa SE 3.2 km/h 3.2 km/h 90% 0.0 mm 32 W/m2
11:34 2.3 °C 0.8 °C 1012.9 hPa NNW 4.7 km/h 8 km/h 90% 0.0 mm 35 W/m2
11:39 2.3 °C 0.8 °C 1012.9 hPa North 3.2 km/h 4.8 km/h 90% 0.0 mm 39 W/m2
11:44 2.4 °C 0.9 °C 1012.9 hPa NE 3.2 km/h 4.8 km/h 90% 0.0 mm 37 W/m2
11:49 2.4 °C 0.9 °C 1012.9 hPa Calm   1.6 km/h 90% 0.0 mm 37 W/m2
11:54 2.4 °C 0.9 °C 1012.9 hPa NNE 4.7 km/h 4.8 km/h 90% 0.0 mm 39 W/m2
11:59 2.4 °C 0.9 °C 1012.9 hPa Calm   8 km/h 90% 0.0 mm 37 W/m2
12:04 2.4 °C 0.9 °C 1012.9 hPa NNE 1.4 km/h 6.4 km/h 90% 0.0 mm 39 W/m2
12:09 2.4 °C 0.9 °C 1012.9 hPa ENE 3.2 km/h 8 km/h 90% 0.0 mm 33 W/m2
12:14 2.5 °C 1 °C 1012.9 hPa Calm   8 km/h 90% 0.0 mm 33 W/m2
12:19 2.5 °C 1 °C 1012.9 hPa East 1.4 km/h 3.2 km/h 90% 0.0 mm 30 W/m2
12:24 2.5 °C 1 °C 1012.9 hPa NNW 1.4 km/h 4.8 km/h 90% 0.0 mm 40 W/m2
12:29 2.6 °C 1.1 °C 1012.9 hPa NE 3.2 km/h 4.8 km/h 90% 0.0 mm 44 W/m2
12:34 2.6 °C 1.1 °C 1012.5 hPa East 3.2 km/h 6.4 km/h 90% 0.0 mm 53 W/m2
12:39 2.6 °C 1.1 °C 1012.5 hPa East 1.4 km/h 1.6 km/h 90% 0.0 mm 37 W/m2
12:44 2.6 °C 1.1 °C 1012.9 hPa North 1.4 km/h 3.2 km/h 90% 0.0 mm 35 W/m2
12:49 2.6 °C 1.1 °C 1012.5 hPa NE 1.4 km/h 3.2 km/h 90% 0.0 mm 33 W/m2
12:54 2.7 °C 1.2 °C 1012.5 hPa Calm   4.8 km/h 90% 0.0 mm 35 W/m2
12:59 2.7 °C 1.2 °C 1012.5 hPa Calm   6.4 km/h 90% 0.0 mm 39 W/m2
13:04 2.7 °C 1.2 °C 1012.5 hPa East 6.4 km/h 6.4 km/h 90% 0.0 mm 30 W/m2
13:09 2.7 °C 1.1 °C 1012.2 hPa ENE 3.2 km/h 11.3 km/h 89% 0.0 mm 35 W/m2
13:14 2.7 °C 1.1 °C 1012.2 hPa Calm   4.8 km/h 89% 0.0 mm 39 W/m2
13:19 2.7 °C 1.1 °C 1012.2 hPa NNE 1.4 km/h 8 km/h 89% 0.0 mm 47 W/m2
13:24 2.7 °C 1.1 °C 1012.5 hPa Calm   3.2 km/h 89% 0.0 mm 23 W/m2
13:29 2.7 °C 1.1 °C 1012.5 hPa Calm   6.4 km/h 89% 0.0 mm 21 W/m2
13:34 2.7 °C 1.1 °C 1012.5 hPa ENE 1.4 km/h 4.8 km/h 89% 0.0 mm 23 W/m2
13:39 2.7 °C 1.1 °C 1012.2 hPa SSE 1.4 km/h 3.2 km/h 89% 0.0 mm 32 W/m2
13:44 2.7 °C 1.1 °C 1012.2 hPa Calm   3.2 km/h 89% 0.0 mm 39 W/m2
13:49 2.7 °C 1.1 °C 1012.2 hPa Calm   4.8 km/h 89% 0.0 mm 28 W/m2
13:54 2.7 °C 1.1 °C 1012.2 hPa WNW 1.4 km/h 4.8 km/h 89% 0.0 mm 21 W/m2
13:59 2.7 °C 1.1 °C 1012.2 hPa Calm   3.2 km/h 89% 0.0 mm 16 W/m2
14:05 2.7 °C 1.1 °C 1012.5 hPa NW 3.2 km/h 9.7 km/h 89% 0.0 mm 9 W/m2
14:10 2.6 °C 1 °C 1012.5 hPa Calm   4.8 km/h 89% 0.0 mm 9 W/m2
14:15 2.6 °C 1 °C 1012.5 hPa NNW 1.4 km/h 9.7 km/h 89% 0.0 mm 9 W/m2
14:20 2.6 °C 1 °C 1012.5 hPa WNW 4.7 km/h 4.8 km/h 89% 0.0 mm 12 W/m2
14:25 2.6 °C 1 °C 1012.5 hPa North 3.2 km/h 6.4 km/h 89% 0.0 mm 14 W/m2
14:30 2.6 °C 1 °C 1012.5 hPa ESE 1.4 km/h 4.8 km/h 89% 0.0 mm 14 W/m2
14:35 2.6 °C 1 °C 1012.5 hPa NNE 3.2 km/h 4.8 km/h 89% 0.0 mm 11 W/m2
14:40 2.6 °C 1 °C 1012.5 hPa NNW 3.2 km/h 6.4 km/h 89% 0.0 mm 11 W/m2
14:45 2.6 °C 1 °C 1012.5 hPa NNW 3.2 km/h 4.8 km/h 89% 0.0 mm 16 W/m2
14:50 2.5 °C 0.9 °C 1012.5 hPa WNW 3.2 km/h 4.8 km/h 89% 0.0 mm 18 W/m2
14:55 2.6 °C 1 °C 1012.5 hPa Calm   6.4 km/h 89% 0.0 mm 14 W/m2
15:00 2.5 °C 0.9 °C 1012.5 hPa NW 3.2 km/h 3.2 km/h 89% 0.0 mm 12 W/m2
15:05 2.5 °C 0.9 °C 1012.5 hPa SSW 1.4 km/h 3.2 km/h 89% 0.0 mm 14 W/m2
15:10 2.5 °C 1 °C 1012.5 hPa NNW 3.2 km/h 6.4 km/h 90% 0.0 mm 14 W/m2
15:15 2.4 °C 0.9 °C 1012.5 hPa North 4.7 km/h 4.8 km/h 90% 0.0 mm 11 W/m2
15:20 2.4 °C 0.9 °C 1012.5 hPa NW 3.2 km/h 4.8 km/h 90% 0.0 mm 11 W/m2
15:25 2.4 °C 0.9 °C 1012.5 hPa Calm   6.4 km/h 90% 0.0 mm 12 W/m2
15:30 2.4 °C 0.9 °C 1012.5 hPa NNW 4.7 km/h 4.8 km/h 90% 0.0 mm 11 W/m2
15:35 2.4 °C 0.9 °C 1012.9 hPa Calm   3.2 km/h 90% 0.0 mm 9 W/m2
15:40 2.4 °C 0.9 °C 1012.5 hPa NNW 1.4 km/h 6.4 km/h 90% 0.0 mm 7 W/m2
15:45 2.4 °C 0.9 °C 1012.9 hPa ESE 1.4 km/h 3.2 km/h 90% 0.0 mm 5 W/m2
15:50 2.4 °C 0.9 °C 1012.5 hPa Calm   4.8 km/h 90% 0.0 mm 5 W/m2
15:55 2.4 °C 0.9 °C 1012.9 hPa NNW 4.7 km/h 4.8 km/h 90% 0.0 mm 5 W/m2
16:00 2.4 °C 0.9 °C 1012.5 hPa North 3.2 km/h 3.2 km/h 90% 0.0 mm 7 W/m2
16:05 2.4 °C 0.9 °C 1012.5 hPa Calm   3.2 km/h 90% 0.0 mm 5 W/m2
16:10 2.4 °C 0.9 °C 1012.5 hPa NNW 1.4 km/h 4.8 km/h 90% 0.0 mm 7 W/m2
16:15 2.4 °C 0.9 °C 1012.5 hPa NNE 3.2 km/h 9.7 km/h 90% 0.0 mm 5 W/m2
16:20 2.4 °C 0.9 °C 1012.5 hPa North 3.2 km/h 4.8 km/h 90% 0.0 mm 0 W/m2
16:25 2.4 °C 0.9 °C 1012.5 hPa ENE 1.4 km/h 9.7 km/h 90% 0.0 mm 0 W/m2
16:30 2.3 °C 0.8 °C 1012.5 hPa East 3.2 km/h 6.4 km/h 90% 0.0 mm 0 W/m2
16:35 2.3 °C 0.8 °C 1012.5 hPa West 3.2 km/h 3.2 km/h 90% 0.0 mm 0 W/m2
16:40 2.3 °C 0.8 °C 1012.5 hPa Calm   6.4 km/h 90% 0.0 mm 0 W/m2
16:45 2.3 °C 1 °C 1012.5 hPa North 1.4 km/h 4.8 km/h 91% 0.0 mm 0 W/m2
16:50 2.3 °C 1 °C 1012.9 hPa NNW 6.4 km/h 6.4 km/h 91% 0.0 mm 0 W/m2
16:55 2.3 °C 1 °C 1012.9 hPa NNW 3.2 km/h 4.8 km/h 91% 0.0 mm 0 W/m2
17:00 2.3 °C 1 °C 1012.9 hPa ENE 1.4 km/h 4.8 km/h 91% 0.0 mm 0 W/m2
17:05 2.3 °C 1 °C 1012.9 hPa NNW 1.4 km/h 4.8 km/h 91% 0.0 mm 0 W/m2
17:10 2.3 °C 1 °C 1012.9 hPa NNW 6.4 km/h 6.4 km/h 91% 0.0 mm 0 W/m2
17:15 2.3 °C 1 °C 1012.9 hPa North 1.4 km/h 4.8 km/h 91% 0.0 mm 0 W/m2
17:20 2.3 °C 1 °C 1012.9 hPa Calm   4.8 km/h 91% 0.0 mm 0 W/m2
17:25 2.3 °C 1 °C 1012.9 hPa North 1.4 km/h 4.8 km/h 91% 0.0 mm 0 W/m2
17:30 2.3 °C 1 °C 1012.9 hPa East 1.4 km/h 12.9 km/h 91% 0.0 mm 0 W/m2
17:35 2.3 °C 1 °C 1012.9 hPa East 6.4 km/h 9.7 km/h 91% 0.0 mm 0 W/m2
17:40 2.3 °C 1 °C 1012.9 hPa NNW 1.4 km/h 12.9 km/h 91% 0.0 mm 0 W/m2
17:45 2.3 °C 1 °C 1012.9 hPa East 3.2 km/h 6.4 km/h 91% 0.0 mm 0 W/m2
17:50 2.3 °C 1 °C 1012.9 hPa Calm   4.8 km/h 91% 0.0 mm 0 W/m2
17:55 2.3 °C 1 °C 1012.9 hPa Calm   9.7 km/h 91% 0.0 mm 0 W/m2
18:00 2.3 °C 1 °C 1012.9 hPa Calm   9.7 km/h 91% 0.0 mm 0 W/m2
18:05 2.3 °C 1 °C 1012.9 hPa ENE 1.4 km/h 3.2 km/h 91% 0.0 mm 0 W/m2
18:10 2.3 °C 1 °C 1012.9 hPa NNW 6.4 km/h 8 km/h 91% 0.0 mm 0 W/m2
18:15 2.3 °C 1 °C 1012.9 hPa Calm   3.2 km/h 91% 0.0 mm 0 W/m2
18:20 2.3 °C 1 °C 1012.9 hPa North 3.2 km/h 3.2 km/h 91% 0.0 mm 0 W/m2
18:25 2.3 °C 1 °C 1012.9 hPa ENE 1.4 km/h 3.2 km/h 91% 0.0 mm 0 W/m2
18:30 2.3 °C 1 °C 1012.9 hPa NNW 3.2 km/h 9.7 km/h 91% 0.0 mm 0 W/m2
18:35 2.3 °C 1 °C 1012.9 hPa NE 1.4 km/h 8 km/h 91% 0.0 mm 0 W/m2
18:40 2.3 °C 1 °C 1012.9 hPa Calm   9.7 km/h 91% 0.0 mm 0 W/m2
18:45 2.3 °C 1 °C 1012.9 hPa NNW 4.7 km/h 8 km/h 91% 0.0 mm 0 W/m2
18:50 2.3 °C 1 °C 1012.9 hPa Calm   4.8 km/h 91% 0.0 mm 0 W/m2
18:55 2.3 °C 1 °C 1012.9 hPa NE 3.2 km/h 3.2 km/h 91% 0.0 mm 0 W/m2
19:00 2.3 °C 1 °C 1012.9 hPa South 1.4 km/h 4.8 km/h 91% 0.0 mm 0 W/m2
19:05 2.3 °C 1 °C 1012.9 hPa Calm   3.2 km/h 91% 0.0 mm 0 W/m2
19:10 2.3 °C 1 °C 1012.9 hPa NNE 3.2 km/h 4.8 km/h 91% 0.0 mm 0 W/m2
19:15 2.3 °C 1 °C 1012.9 hPa NNW 3.2 km/h 8 km/h 91% 0.0 mm 0 W/m2
19:20 2.3 °C 1 °C 1012.9 hPa East 4.7 km/h 4.8 km/h 91% 0.0 mm 0 W/m2
19:25 2.3 °C 1 °C 1012.9 hPa ENE 1.4 km/h 8 km/h 91% 0.0 mm 0 W/m2
19:30 2.3 °C 1 °C 1012.9 hPa Calm   3.2 km/h 91% 0.0 mm 0 W/m2
19:35 2.3 °C 1 °C 1012.9 hPa East 4.7 km/h 9.7 km/h 91% 0.0 mm 0 W/m2
19:40 2.3 °C 1 °C 1012.9 hPa ESE 3.2 km/h 6.4 km/h 91% 0.0 mm 0 W/m2
19:45 2.3 °C 1 °C 1012.9 hPa North 7.9 km/h 8 km/h 91% 0.0 mm 0 W/m2
19:51 2.3 °C 1 °C 1012.9 hPa Calm   3.2 km/h 91% 0.0 mm 0 W/m2
19:56 2.4 °C 1.1 °C 1012.9 hPa ESE 4.7 km/h 4.8 km/h 91% 0.0 mm 0 W/m2
20:01 2.4 °C 1.1 °C 1012.9 hPa East 6.4 km/h 8 km/h 91% 0.0 mm 0 W/m2
20:06 2.4 °C 1.1 °C 1012.9 hPa North 6.4 km/h 11.3 km/h 91% 0.0 mm 0 W/m2
20:11 2.4 °C 1.1 °C 1012.9 hPa ENE 4.7 km/h 9.7 km/h 91% 0.0 mm 0 W/m2
20:16 2.4 °C 1.1 °C 1012.9 hPa North 1.4 km/h 3.2 km/h 91% 0.0 mm 0 W/m2
20:21 2.4 °C 1.1 °C 1012.9 hPa NE 4.7 km/h 4.8 km/h 91% 0.0 mm 0 W/m2
20:26 2.4 °C 1.1 °C 1012.9 hPa NE 1.4 km/h 3.2 km/h 91% 0.0 mm 0 W/m2
20:31 2.4 °C 1.1 °C 1012.9 hPa Calm   3.2 km/h 91% 0.0 mm 0 W/m2
20:36 2.4 °C 1.1 °C 1012.9 hPa Calm   3.2 km/h 91% 0.0 mm 0 W/m2
20:41 2.4 °C 1.1 °C 1012.9 hPa NE 1.4 km/h 4.8 km/h 91% 0.0 mm 0 W/m2
20:46 2.4 °C 1.1 °C 1012.9 hPa Calm   4.8 km/h 91% 0.0 mm 0 W/m2
20:51 2.4 °C 1.1 °C 1012.9 hPa North 3.2 km/h 4.8 km/h 91% 0.0 mm 0 W/m2
20:56 2.4 °C 1.1 °C 1012.9 hPa NNW 3.2 km/h 3.2 km/h 91% 0.0 mm 0 W/m2
21:01 2.4 °C 1.1 °C 1012.9 hPa East 3.2 km/h 11.3 km/h 91% 0.0 mm 0 W/m2
21:06 2.4 °C 1.1 °C 1012.9 hPa ESE 3.2 km/h 6.4 km/h 91% 0.0 mm 0 W/m2
21:11 2.4 °C 1.1 °C 1012.9 hPa Calm   4.8 km/h 91% 0.0 mm 0 W/m2
21:16 2.4 °C 1.1 °C 1012.9 hPa ENE 1.4 km/h 3.2 km/h 91% 0.0 mm 0 W/m2
21:21 2.4 °C 1.1 °C 1012.9 hPa NNE 1.4 km/h 3.2 km/h 91% 0.0 mm 0 W/m2
21:26 2.4 °C 1.2 °C 1012.9 hPa East 3.2 km/h 6.4 km/h 92% 0.0 mm 0 W/m2
21:31 2.4 °C 1.2 °C 1012.9 hPa Calm   4.8 km/h 92% 0.0 mm 0 W/m2
21:36 2.4 °C 1.2 °C 1012.9 hPa Calm   3.2 km/h 92% 0.0 mm 0 W/m2
21:41 2.4 °C 1.2 °C 1012.9 hPa Calm   3.2 km/h 92% 0.0 mm 0 W/m2
21:46 2.4 °C 1.2 °C 1012.9 hPa Calm   4.8 km/h 92% 0.0 mm 0 W/m2
21:51 2.4 °C 1.2 °C 1012.9 hPa East 3.2 km/h 4.8 km/h 92% 0.0 mm 0 W/m2
21:56 2.4 °C 1.2 °C 1012.9 hPa ENE 1.4 km/h 3.2 km/h 92% 0.0 mm 0 W/m2
22:01 2.4 °C 1.2 °C 1012.9 hPa Calm     92% 0.0 mm 0 W/m2
22:06 2.4 °C 1.2 °C 1012.9 hPa Calm   3.2 km/h 92% 0.0 mm 0 W/m2
22:11 2.4 °C 1.1 °C 1012.9 hPa Calm   3.2 km/h 91% 0.0 mm 0 W/m2
22:16 2.4 °C 1.1 °C 1012.9 hPa West 3.2 km/h 4.8 km/h 91% 0.0 mm 0 W/m2
22:21 2.4 °C 1.1 °C 1012.9 hPa Calm   1.6 km/h 91% 0.0 mm 0 W/m2
22:26 2.4 °C 1.1 °C 1012.9 hPa Calm   4.8 km/h 91% 0.0 mm 0 W/m2
22:31 2.5 °C 1.2 °C 1012.9 hPa Calm   3.2 km/h 91% 0.0 mm 0 W/m2
22:36 2.5 °C 1.2 °C 1012.9 hPa Calm   3.2 km/h 91% 0.0 mm 0 W/m2
22:41 2.5 °C 1.2 °C 1013.2 hPa Calm   3.2 km/h 91% 0.0 mm 0 W/m2
22:46 2.5 °C 1.2 °C 1013.2 hPa NNW 1.4 km/h 4.8 km/h 91% 0.0 mm 0 W/m2
22:51 2.5 °C 1.2 °C 1013.2 hPa NW 1.4 km/h 4.8 km/h 91% 0.0 mm 0 W/m2
22:56 2.5 °C 1.2 °C 1013.2 hPa NW 4.7 km/h 4.8 km/h 91% 0.0 mm 0 W/m2
23:01 2.5 °C 1.2 °C 1012.9 hPa NE 1.4 km/h 3.2 km/h 91% 0.0 mm 0 W/m2
23:06 2.5 °C 1.2 °C 1013.2 hPa WNW 4.7 km/h 6.4 km/h 91% 0.0 mm 0 W/m2
23:11 2.5 °C 1.2 °C 1012.9 hPa NW 3.2 km/h 6.4 km/h 91% 0.0 mm 0 W/m2
23:16 2.5 °C 1.2 °C 1012.9 hPa NNW 3.2 km/h 6.4 km/h 91% 0.0 mm 0 W/m2
23:21 2.5 °C 1.2 °C 1012.9 hPa Calm   3.2 km/h 91% 0.0 mm 0 W/m2
23:26 2.4 °C 1.1 °C 1013.2 hPa NW 1.4 km/h 6.4 km/h 91% 0.0 mm 0 W/m2
23:31 2.4 °C 1.1 °C 1013.2 hPa North 1.4 km/h 3.2 km/h 91% 0.0 mm 0 W/m2
23:36 2.4 °C 1.1 °C 1013.2 hPa WNW 4.7 km/h 4.8 km/h 91% 0.0 mm 0 W/m2
23:41 2.4 °C 1.1 °C 1013.2 hPa NNW 3.2 km/h 3.2 km/h 91% 0.0 mm 0 W/m2
23:46 2.4 °C 1.1 °C 1013.2 hPa Calm   4.8 km/h 91% 0.0 mm 0 W/m2
23:51 2.5 °C 1.2 °C 1013.2 hPa NW 1.4 km/h 3.2 km/h 91% 0.0 mm 0 W/m2
23:56 2.5 °C 1.2 °C 1012.9 hPa West 4.7 km/h 6.4 km/h 91% 0.0 mm 0 W/m2
Juneau County Weather
Compliments of Weather Underground - 4 mb